Weather History for Rockford, IL

Change the Weather History Date:

Wednesday, February 5, 2014

  Actual Average Record
Temperature  
Mean Temperature 11 °F 23 °F  
Max Temperature 20 °F 31 °F 56 °F (1946)
Min Temperature 2 °F 15 °F -21 °F (1979)
Degree Days  
Heating Degree Days 54 42  
Month to date heating degree days 283 211  
Since 1 July heating degree days 4708 4120  
Cooling Degree Days 0 0  
Month to date cooling degree days 0 0  
Year to date cooling degree days 0 0  
Moisture  
Dew Point 10 °F    
Average Humidity 77    
Maximum Humidity 92    
Minimum Humidity 62    
Precipitation  
Precipitation 0.09 in 0.04 in 0.59 in (1953)
Month to date precipitation 0.47 0.20  
Year to date precipitation 2.45 1.57  
Snow  
Snow 1.70 in 0.30 in 5.00 in (1924)
Month to date snowfall 5.0 1.6  
Since 1 July snowfall 39.0 24.9  
Snow Depth 11.00 in    
Sea Level Pressure  
Sea Level Pressure 30.32 in    
Wind  
Wind Speed 13 mph (NNW)    
Max Wind Speed 23 mph    
Max Gust Speed 28 mph    
Visibility 6 miles    
Events Snow    
T = Trace of Precipitation, MM = Missing Value Source: NWS Daily Summary

Daily Weather History Graph

Daily Weather History Graph

Search for Another Location

Airport:

Trip Planner

Search our weather history database for the weather conditions in past years. The results will help you decide how hot, cold, wet, or windy it might be!

Date:

Astronomy

Feb. 05, 2014 Rise Set
Actual Time 7:05 AM CST 5:16 PM CST
Civil Twilight 6:35 AM CST 5:45 PM CST
Nautical Twilight 6:02 AM CST 6:18 PM CST
Astronomical Twilight 5:29 AM CST 6:51 PM CST
Moon 10:12 AM CST (2/5) No Moon Set
Length of Visible Light 11h 09m
Length of Day
10h 10m
Waxing Crescent, 39% of the Moon is Illuminated
Feb 5
Waxing Crescent
Feb 6
First Quarter
Feb 14
Full
Feb 22
Last Quarter
Mar 1
New

Hourly Weather History & Observations

Time (CST) Temp. Windchill Dew Point Humidity Pressure Visibility Wind Dir Wind Speed Gust Speed Precip Events Conditions
12:06 AM 18.0 °F 3.1 °F 14.0 °F 84% 30.15 in 1.0 mi North 16.1 mph - 0.01 in Snow Light Snow
12:54 AM 18.0 °F 2.6 °F 14.0 °F 84% 30.17 in 1.0 mi North 17.3 mph - 0.03 in Snow Light Snow
1:54 AM 18.0 °F 4.2 °F 15.1 °F 88% 30.17 in 1.0 mi North 13.8 mph - 0.01 in Snow Light Snow
2:54 AM 19.0 °F 3.2 °F 15.1 °F 85% 30.14 in 1.0 mi North 19.6 mph - 0.02 in Snow Light Snow
3:54 AM 19.0 °F 2.0 °F 15.1 °F 85% 30.14 in 1.0 mi North 23.0 mph - 0.01 in Snow Light Snow
4:54 AM 19.9 °F 5.2 °F 16.0 °F 85% 30.16 in 1.0 mi North 17.3 mph 26.5 mph 0.00 in Snow Light Snow
5:54 AM 19.0 °F 4.0 °F 15.1 °F 85% 30.17 in 1.0 mi North 17.3 mph - 0.00 in Snow Light Snow
6:07 AM 19.0 °F 5.0 °F 15.1 °F 85% 30.14 in 1.5 mi North 15.0 mph 25.3 mph 0.01 in Snow Light Snow
6:54 AM 18.0 °F 3.6 °F 14.0 °F 84% 30.20 in 1.5 mi North 15.0 mph - 0.02 in Snow Light Snow
7:11 AM 18.0 °F 3.1 °F 14.0 °F 84% 30.18 in 2.0 mi North 16.1 mph 25.3 mph 0.00 in Snow Light Snow
7:54 AM 17.1 °F 1.5 °F 12.0 °F 81% 30.25 in 3.0 mi North 17.3 mph - 0.00 in Snow Light Snow
8:54 AM 17.1 °F 1.0 °F 12.0 °F 81% 30.29 in 4.0 mi North 18.4 mph - 0.00 in Snow Light Snow
9:54 AM 17.1 °F 1.0 °F 10.9 °F 77% 30.31 in 3.0 mi North 18.4 mph - 0.00 in Snow Blowing Snow
10:54 AM 18.0 °F 2.6 °F 10.9 °F 74% 30.34 in 10.0 mi North 17.3 mph - N/A   Mostly Cloudy
11:54 AM 19.9 °F 7.3 °F 10.0 °F 65% 30.35 in 10.0 mi North 12.7 mph - N/A   Scattered Clouds
12:54 PM 19.9 °F 6.7 °F 10.0 °F 65% 30.36 in 10.0 mi North 13.8 mph - N/A   Mostly Cloudy
1:54 PM 19.9 °F 7.3 °F 9.0 °F 62% 30.37 in 10.0 mi North 12.7 mph - N/A   Overcast
2:54 PM 19.0 °F 6.8 °F 10.0 °F 68% 30.40 in 8.0 mi NNW 11.5 mph - 0.00 in Snow Light Snow
3:54 PM 19.0 °F 8.2 °F 9.0 °F 65% 30.42 in 9.0 mi NW 9.2 mph - 0.00 in   Mostly Cloudy
4:54 PM 17.1 °F 7.6 °F 10.0 °F 74% 30.44 in 10.0 mi NW 6.9 mph - N/A   Mostly Cloudy
5:54 PM 14.0 °F 2.0 °F 9.0 °F 80% 30.46 in 9.0 mi WNW 9.2 mph - 0.00 in Snow Light Snow
6:54 PM 12.0 °F -1.3 °F 6.1 °F 77% 30.48 in 10.0 mi WNW 10.4 mph - 0.00 in   Partly Cloudy
7:54 PM 9.0 °F -3.2 °F 3.0 °F 77% 30.49 in 10.0 mi WNW 8.1 mph - N/A   Clear
8:54 PM 8.1 °F -7.0 °F 3.0 °F 80% 30.50 in 10.0 mi WNW 11.5 mph - N/A   Clear
9:54 PM 5.0 °F -5.6 °F -0.0 °F 80% 30.50 in 10.0 mi WNW 5.8 mph - N/A   Partly Cloudy
10:54 PM 3.9 °F -9.4 °F -2.0 °F 76% 30.50 in 10.0 mi WNW 8.1 mph - N/A   Partly Cloudy
11:54 PM 1.9 °F -7.6 °F -2.9 °F 80% 30.50 in 10.0 mi WNW 4.6 mph - N/A   Partly Cloudy